Weather History for Albuquerque Double Eagle, NM

Change the Weather History Date:

Thursday, October 18, 2012

  Actual Average Record
Temperature  
Mean Temperature 55 °F -  
Max Temperature 71 °F - - ()
Min Temperature 39 °F - - ()
Degree Days  
Heating Degree Days 10    
Growing Degree Days 5 (Base 50)    
Moisture  
Dew Point -2 °F    
Average Humidity 11    
Maximum Humidity 15    
Minimum Humidity 8    
Precipitation  
Precipitation 0.00 in - - ()
Sea Level Pressure  
Sea Level Pressure 30.14 in    
Wind  
Wind Speed 6 mph (NNW)    
Max Wind Speed 20 mph    
Max Gust Speed 17 mph    
Visibility 10 miles    
Events      
T = Trace of Precipitation, MM = Missing Value Source: NWS Daily Summary

Daily Weather History Graph

Daily Weather History Graph

Search for Another Location

Airport:

Trip Planner

Search our weather history database for the weather conditions in past years. The results will help you decide how hot, cold, wet, or windy it might be!

Date:

Astronomy

Oct. 18, 2012 Rise Set
Actual Time 7:16 AM MDT 6:27 PM MDT
Civil Twilight 6:50 AM MDT 6:53 PM MDT
Nautical Twilight 6:21 AM MDT 7:22 PM MDT
Astronomical Twilight 5:51 AM MDT 7:52 PM MDT
Moon 10:53 AM MDT (10/18) 9:12 PM MDT (10/18)
Length of Visible Light 12h 02m
Length of Day
11h 11m
Waxing Crescent, 15% of the Moon is Illuminated
Oct 18
Waxing Crescent
Oct 21
First Quarter
Oct 29
Full
Nov 6
Last Quarter
Nov 13
New

Hourly Weather History & Observations

Time (MDT) Temp. Windchill Dew Point Humidity Pressure Visibility Wind Dir Wind Speed Gust Speed Precip Events Conditions
12:15 AM 41.0 °F - -9.4 °F 12% 30.12 in 10.0 mi Calm Calm - N/A   Clear
12:35 AM 42.8 °F - -7.6 °F 12% 30.12 in 10.0 mi Calm Calm - N/A   Clear
12:55 AM 48.2 °F - -9.4 °F 9% 30.12 in 10.0 mi Calm Calm - N/A   Clear
1:15 AM 42.8 °F - -9.4 °F 11% 30.12 in 10.0 mi Calm Calm - N/A   Clear
1:35 AM 41.0 °F - -9.4 °F 12% 30.13 in 10.0 mi Calm Calm - N/A   Clear
1:55 AM 39.2 °F - -9.4 °F 12% 30.13 in 10.0 mi Calm Calm - N/A   Clear
2:15 AM 41.0 °F - -7.6 °F 13% 30.13 in 10.0 mi Calm Calm - N/A   Clear
2:35 AM 41.0 °F 34.3 °F -7.6 °F 13% 30.13 in 10.0 mi NW 11.5 mph - N/A   Clear
2:55 AM 41.0 °F 35.8 °F -7.6 °F 13% 30.14 in 10.0 mi NNW 8.1 mph - N/A   Clear
3:15 AM 39.2 °F 33.0 °F -7.6 °F 14% 30.13 in 10.0 mi NNW 9.2 mph - N/A   Clear
3:35 AM 41.0 °F 33.9 °F -4.0 °F 15% 30.13 in 10.0 mi NNW 12.7 mph - N/A   Clear
3:55 AM 44.6 °F 38.4 °F -4.0 °F 13% 30.13 in 10.0 mi NNW 12.7 mph - N/A   Clear
4:15 AM 46.4 °F 41.5 °F -2.2 °F 13% 30.13 in 10.0 mi North 10.4 mph - N/A   Clear
4:35 AM 46.4 °F 41.1 °F -2.2 °F 13% 30.13 in 10.0 mi NNW 11.5 mph - N/A   Clear
4:55 AM 46.4 °F 41.5 °F -2.2 °F 13% 30.13 in 10.0 mi North 10.4 mph - N/A   Clear
5:35 AM 44.6 °F 38.4 °F -4.0 °F 13% 30.14 in 10.0 mi North 12.7 mph - N/A   Clear
5:50 AM 44.6 °F 38.4 °F -4.0 °F 13% 30.14 in 10.0 mi North 12.7 mph - N/A   Clear
7:50 AM 42.8 °F - -4.0 °F 14% 30.18 in 10.0 mi Calm Calm - N/A   Clear
8:50 AM 51.8 °F - -0.4 °F 12% 30.19 in 10.0 mi North 10.4 mph - N/A   Clear
9:50 AM 57.2 °F - -0.4 °F 10% 30.20 in 10.0 mi NNW 8.1 mph - N/A   Clear
10:50 AM 59.0 °F - 1.4 °F 10% 30.19 in 10.0 mi North 11.5 mph 17.3 mph N/A   Clear
11:50 AM 64.4 °F - 3.2 °F 9% 30.19 in 10.0 mi WNW 15.0 mph - N/A   Clear
12:50 PM 66.2 °F - 5.0 °F 9% 30.17 in 10.0 mi NW 17.3 mph - N/A   Clear
1:50 PM 68.0 °F - 6.8 °F 9% 30.14 in 10.0 mi NW 17.3 mph - N/A   Clear
2:50 PM 71.6 °F - 6.8 °F 8% 30.12 in 10.0 mi NW 19.6 mph - N/A   Clear
3:50 PM 71.6 °F - 6.8 °F 8% 30.11 in 10.0 mi NW 17.3 mph - N/A   Clear
4:50 PM 71.6 °F - 6.8 °F 8% 30.10 in 10.0 mi NW 17.3 mph - N/A   Clear
5:50 PM 68.0 °F - 8.6 °F 10% 30.11 in 10.0 mi NW 15.0 mph - N/A   Clear
6:50 PM 62.6 °F - 8.6 °F 12% 30.11 in 10.0 mi NNW 9.2 mph - N/A   Clear